Flag for Poland Weather past 2 weeks in Tarnów, Poland

Now
66 °F

Mild.


Feels Like: 66 °F
Forecast: 53 / 79 °F
Wind: 2 mph from South

Location: Tarnow

Current Time: May 4, 2015 at 3:21:46 PM

Latest Report: May 4, 2015 at 2:00 PM


Visibility: 25 mi

Pressure: 29.88 "Hg

Humidity: 62%

Dew point: 53 °F

Location of TarnówLocation

Historic Weather in Tarnów — Graph

°F

Tarnów temperature yesterday

Maximum temperature yesterday: 64 °F (at 5:00 PM)
Minimum temperature yesterday: 33 °F (at 5:00 AM)
Average temperature yesterday: 51 °F

Past Weeks' High & Low Weather Summary

 TemperatureHumidityPressure
High77 °F (Apr 27, 5:00 PM)99% (Apr 27, 7:00 AM)30.24 "Hg (Apr 27, 7:00 AM)
Low32 °F (Apr 30, 5:00 AM)24% (Apr 24, 1:00 PM)29.64 "Hg (Apr 27, 7:00 PM)
Average53 °F62%29.95 "Hg
* Reported Apr 19 2:00 PM — May 4 2:00 PM, Tarnów, Weather by CustomWeather, © 2015

Note: Actual official high and low records may vary slightly from our data, if they occured in-between our weather recording intervals... More about our weather records

Advertising

Tarnów weather history for previous 24 hours

 ConditionsComfort  
Time TempWeatherWind HumidityBarometerVisibility
2:00 PM
Mon, May 4
66 °FMild.2 mph62%29.88 "Hg25 mi
1:00 PM64 °FMild.1 mph67%29.89 "Hg22 mi
12:00 PM62 °FCool.2 mph69%29.89 "Hg22 mi
11:00 AM60 °FCool.2 mph74%29.90 "Hg19 mi
10:00 AM59 °FCool.2 mph71%29.89 "Hg22 mi
9:00 AM58 °FCool.2 mph70%29.89 "Hg19 mi
8:00 AM55 °FCool.2 mph71%29.89 "Hg18 mi
7:00 AM53 °FCool.1 mph72%29.88 "Hg18 mi
6:00 AM50 °FCool.1 mph74%29.88 "Hg25 mi
4:00 AM49 °FCool.1 mph68%29.90 "Hg31 mi
3:00 AM51 °FCool.2 mph64%29.90 "Hg31 mi
2:00 AM50 °FCool.1 mph62%29.91 "Hg31 mi
1:00 AM50 °FCool.2 mph60%29.92 "Hg28 mi
12:00 AM51 °FCool.2 mph58%29.93 "Hg31 mi
11:00 PM
Sun, May 3
52 °FCool.2 mph57%29.94 "Hg25 mi
10:00 PM53 °FCool.2 mph52%29.95 "Hg25 mi
9:00 PM55 °FCool.2 mph47%29.94 "Hg25 mi
8:00 PM57 °FRefreshingly cool.2 mph43%29.93 "Hg31 mi
7:00 PM60 °FRefreshingly cool.2 mph39%29.91 "Hg28 mi
6:00 PM63 °FMild.3 mph33%29.90 "Hg22 mi
5:00 PM64 °FMild.2 mph37%29.91 "Hg25 mi
4:00 PM64 °FMild.2 mph29%29.93 "Hg25 mi
3:00 PM64 °FMild.2 mph29%29.94 "Hg19 mi
Weather by CustomWeather, © 2015

See weather overviewHow to use our weather pages